Location: Berlin
(38.3226°N, 75.2177°W)
Time: 17:41:49
(UTC+00:00)

Meteor 1-31 Rocket - Pass Details

Date: 26 October 2020
Orbit: 520 x 546 km, 97.6° (Epoch: 03 December)

Event Time Altitude Azimuth Distance (km) Brightness Sun altitude
Rises 09:23:29 0° 19° (NNE) 2,722 6.6 -23.7°
Reaches altitude 10° 09:25:42 10° 27° (NNE) 1,824 5.8 -23.3°
Maximum altitude 09:29:27 42° 99° (E) 793 4.1 -22.5°
Drops below altitude 10° 09:33:10 10° 170° (S) 1,805 5.5 -21.8°
Sets 09:35:21 0° 178° (S) 2,690 6.4 -21.4°
